{"data":{"norad_id":60116,"intl_designator":"2024-118D","name":"STARLINK-11210 [DTC]","alt_names":[],"object_type":"PAYLOAD","status":"ACTIVE","operator":null,"country":"US","launch_date":"2024-06-24","launch_site_code":"AFWTR","launch_vehicle":null,"mission":null,"orbit_class":"UNKNOWN","rcs_meters":null,"size_class":null,"mass_kg":null,"dimensions":null,"purposes":["comms"],"wikipedia_slug":null,"has_3d_model":false,"image_url":null,"decayed_at":null,"tle_current":{"epoch":"2026-05-25T04:06:32.467104Z","epoch_age_seconds":54135,"freshness":"FRESH","line1":"1 60116U 24118D   26145.17120911  .00000469  00000+0  87274-5 0  9991","line2":"2 60116  53.1594 204.3794 0000999  82.8765 277.2366 15.69708978110000","mean_motion":15.69708978,"eccentricity":9.99e-5,"inclination_deg":53.1594,"raan_deg":204.3794,"arg_perigee_deg":82.8765,"mean_anomaly_deg":277.2366,"bstar":8.7274e-6,"rev_number":11000,"period_min":91.736749944231,"perigee_km":359.05656211333,"apogee_km":360.402787875,"semimajor_km":6737.8666749942,"source":"CELESTRAK","updated_at":"2026-05-25T13:38:19.165792Z"}}}